This is the latest recevied weather packets stored in our database for station/object AE6BH. If no packets are shown the sender has not sent any weather packets the latest 10 day(s).
| Time | Temp. | Humidity | Pressure | Rain* | Wind** | Luminosity | Snow |
|---|---|---|---|---|---|---|---|
| 1778167200 | 13.89° C | 92% | 1017.1 hPa | 0 mm | - | 234 W/m² | - |
| 1778166896 | 13.33° C | 92% | 1017.2 hPa | 0 mm | - | 136 W/m² | - |
| 1778166593 | 13.33° C | 92% | 1017.3 hPa | 0 mm | - | 72 W/m² | - |
| 1778166290 | 13.89° C | 93% | 1017.2 hPa | 0 mm | - | 123 W/m² | - |
| 1778165986 | 13.89° C | 93% | 1017.1 hPa | 0 mm | - | 124 W/m² | - |
| 1778165682 | 13.33° C | 93% | 1017.4 hPa | 0 mm | - | 104 W/m² | - |
| 1778165379 | 13.33° C | 93% | 1017.1 hPa | 0 mm | - | 111 W/m² | - |
| 1778165075 | 13.33° C | 93% | 1017 hPa | 0 mm | - | 112 W/m² | - |
| 1778164773 | 13.33° C | 93% | 1017.1 hPa | 0 mm | - | 101 W/m² | - |
| 1778164470 | 13.33° C | 93% | 1017 hPa | 0 mm | - | 86 W/m² | - |
| 1778164167 | 12.78° C | 93% | 1016.9 hPa | 0 mm | - | 72 W/m² | - |
| 1778163862 | 12.78° C | 93% | 1017.1 hPa | 0 mm | - | 54 W/m² | - |
| 1778163560 | 12.78° C | 93% | 1016.9 hPa | 0 mm | - | 48 W/m² | - |
| 1778163256 | 12.78° C | 93% | 1017.1 hPa | 0 mm | - | 46 W/m² | - |
| 1778162953 | 13.33° C | 93% | 1016.9 hPa | 0 mm | - | 43 W/m² | - |
| 1778162649 | 12.78° C | 93% | 1017 hPa | 0 mm | - | 39 W/m² | - |
| 1778162347 | 12.78° C | 93% | 1016.9 hPa | 0 mm | - | 35 W/m² | - |
| 1778162043 | 12.78° C | 93% | 1017 hPa | 0 mm | - | 32 W/m² | - |
| 1778161741 | 12.78° C | 93% | 1016.7 hPa | 0 mm | - | 30 W/m² | - |
| 1778161437 | 12.78° C | 93% | 1016.8 hPa | 0 mm | - | 23 W/m² | - |
| 1778161133 | 12.78° C | 93% | 1016.7 hPa | 0 mm | - | 23 W/m² | - |
| 1778160829 | 12.78° C | 93% | 1016.8 hPa | 0 mm | - | 19 W/m² | - |
| 1778160528 | 12.78° C | 93% | 1016.9 hPa | 0 mm | - | 15 W/m² | - |
| 1778160224 | 12.22° C | 93% | 1016.9 hPa | 0 mm | - | 11 W/m² | - |
| 1778159921 | 11.67° C | 93% | 1016.9 hPa | 0 mm | - | 9 W/m² | - |
* Rain latest hour (hover to see other rain measurements)
** Current wind speed in m/s (hover to see current wind gust speed)